User: anonymous   Login
Location: Unspecified
(0.0000°N, 0.0000°E)
Time: 15:40:07
(UTC+00:00)
Language:

HORYU 4 - Orbit

View from above orbital plane
View from above orbital plane
View from above satellite
View from above satellite

Ground track
Ground track

The orbit data is extracted from the following two-line orbital elements,

1 41340U 16012D   17228.91756045 +.00000498 +00000-0 +31686-4 0  9998
2 41340 031.0057 082.6733 0014365 315.6654 044.2831 15.00644463082148
Epoch (UTC): 16 August 2017 22:01:17
Eccentricity: 0.0014365
inclination: 31.0057°
perigee height: 555 km
apogee height: 575 km
right ascension of ascending node: 82.6733°
argument of perigee: 315.6654°
revolutions per day: 15.00644463
mean anomaly at epoch: 44.2831°
orbit number at epoch: 8214

The dashed part of the orbit path shows where the satellite is in the earth's shadow,  

DLR